This is the latest recevied weather packets stored in our database for station/object KB2SKP. If no packets are shown the sender has not sent any weather packets the latest 1 day(s).
| Time | Temp. | Humidity | Pressure | Rain* | Wind** | Luminosity | Snow |
|---|---|---|---|---|---|---|---|
| 1778033356 | 22.78° C | 51% | 1008.8 hPa | 0 mm | - | 0 W/m² | - |
| 1778033054 | 22.78° C | 51% | 1008.4 hPa | 0 mm | - | 0 W/m² | - |
| 1778032751 | 22.78° C | 51% | 1008.7 hPa | 0 mm | - | 0 W/m² | - |
| 1778032145 | 22.78° C | 50% | 1008.6 hPa | 0 mm | - | 0 W/m² | - |
| 1778031539 | 22.78° C | 49% | 1008.5 hPa | 0 mm | - | 0 W/m² | - |
| 1778031237 | 22.78° C | 49% | 1008.5 hPa | 0 mm | - | 0 W/m² | - |
| 1778030629 | 23.33° C | 48% | 1008.5 hPa | 0 mm | - | 0 W/m² | - |
| 1778029419 | 23.33° C | 48% | 1008.1 hPa | 0 mm | - | 0 W/m² | - |
| 1778029115 | 23.89° C | 47% | 1008 hPa | 0 mm | - | 0 W/m² | - |
| 1778028812 | 23.33° C | 47% | 1008.1 hPa | 0 mm | - | 0 W/m² | - |
| 1778028508 | 23.89° C | 47% | 1007.9 hPa | 0 mm | - | 0 W/m² | - |
| 1778028206 | 23.89° C | 46% | 1008 hPa | 0 mm | - | 0 W/m² | - |
| 1778027902 | 23.89° C | 45% | 1008 hPa | 0 mm | - | 0 W/m² | - |
| 1778027598 | 23.89° C | 45% | 1007.7 hPa | 0 mm | - | 0 W/m² | - |
| 1778027295 | 23.89° C | 44% | 1007.9 hPa | 0 mm | - | 0 W/m² | - |
| 1778026687 | 24.44° C | 43% | 1007.7 hPa | 0 mm | - | 0 W/m² | - |
| 1778024870 | 25° C | 41% | 1007.4 hPa | 0 mm | - | 4 W/m² | - |
| 1778024264 | 25.56° C | 40% | 1007.3 hPa | 0 mm | - | 9 W/m² | - |
| 1778022752 | 26.11° C | 40% | 1007.1 hPa | 0 mm | - | 21 W/m² | - |
| 1778021540 | 26.11° C | 38% | 1007.3 hPa | 0 mm | - | 28 W/m² | - |
| 1778021235 | 26.11° C | 38% | 1006.8 hPa | 0 mm | - | 29 W/m² | - |
| 1778020933 | 26.11° C | 37% | 1007 hPa | 0 mm | - | 29 W/m² | - |
| 1778016995 | 27.78° C | 34% | 1007 hPa | 0 mm | - | 62 W/m² | - |
| 1778015782 | 27.78° C | 33% | 1007 hPa | 0 mm | - | 75 W/m² | - |
| 1778014570 | 27.78° C | 34% | 1006.9 hPa | 0 mm | - | 148 W/m² | - |
* Rain latest hour (hover to see other rain measurements)
** Current wind speed in m/s (hover to see current wind gust speed)